Regional Weather Roundup
Issued by NWS Sterling, VA

Home | Current Version | Previous Version | Graphics & Text | Print | Product List | Glossary On
Versions: 1 2 3 4 5 6 7 8 9 10 11 12 13 14 15 16 17 18 19 20 21 22 23 24 25 26 27 28 29 30 31 32 33 34 35 36 37 38 39 40 41 42 43 44 45 46 47 48 49 50
830
ASUS41 KLWX 162310
RWRLWX

REGIONAL WEATHER ROUNDUP
NATIONAL WEATHER SERVICE BALTIMORE MD/WASHINGTON DC
600 PM EST MON JAN 16 2017

Note: "FAIR" indicates few or no clouds below 12,000 feet
with no significant weather and/or obstructions to visibility.
 TC=TEMPERATURE CELSIUS

 * =Non NWS site. Station does not report precipitation (e.g. rain,
    snow, etc.), thunder, or fog.

DCZ001-MDZ009-015-VAZ040>042-051-053>054-170000-
WASHINGTON METRO

CITY           SKY/WX    TMP DP  RH WIND       PRES   REMARKS
WASHINGTON NAT CLOUDY    44  32  62 S6        30.37F
DULLES         CLOUDY    43  33  68 SE5       30.35F
ANDREWS AFB    CLOUDY    43  29  58 S6        30.35F
FT BELVOIR     CLOUDY    43  32  63 SE3       30.37S
QUANTICO       CLOUDY    42  36  79 S6        30.38S
LEESBURG*      CLOUDY    45  43  93 MISG      30.35F
MANASSAS*      CLOUDY   N/A N/A N/A S6        30.37S
GAITHERSBURG*  CLOUDY    39  30  70 CALM      30.39S

$$

MDZ006>007-011-014-170000-
BALTIMORE METRO

CITY           SKY/WX    TMP DP  RH WIND       PRES   REMARKS
BWI AIRPORT    CLOUDY    40  30  67 SE5       30.36F
MD SCIENCE CTR   N/A     40  28  62 MISG      30.37F
MARTIN STATE   CLOUDY    37  32  81 CALM      30.39F
ANNAPOLIS      CLOUDY    41  31  67 SE6       30.37F
FORT MEADE*    CLOUDY    39  32  75 SE3       30.39S

$$

MDZ012-015-019>023-170000-
MARYLAND EASTERN SHORE

CITY           SKY/WX    TMP DP  RH WIND       PRES   REMARKS
OCEAN CITY     CLOUDY    41  30  65 CALM      30.40F
SALISBURY      CLOUDY    43  31  62 SE5       30.39S
BAY BRIDGE AP* CLOUDY    41  32  70 S5        30.38F
CAMBRIDGE*     CLOUDY    41  30  65 CALM      30.38F
EASTON*        CLOUDY    43  28  56 CALM      30.42F

$$

MDZ017>025-170000-
SOUTHERN MARYLAND

CITY           SKY/WX    TMP DP  RH WIND       PRES   REMARKS
PATUXENT RIVER CLOUDY    40  29  64 SE6       30.38F
ST INIGOES     NOT AVBL
LEONARDTOWN*   CLOUDY    41  30  65 CALM      30.39S

$$

MDZ003>005-170000-
NORTH CENTRAL MARYLAND

CITY           SKY/WX    TMP DP  RH WIND       PRES   REMARKS
FREDERICK*     CLOUDY    43  36  75 CALM      30.38S
HAGERSTOWN APT CLOUDY    36  28  73 NE5       30.32F
WESTMINSTER*   LGT RAIN  37  30  75 SE3       30.33S

$$

MDZ501>502-170000-
WESTERN MARYLAND

CITY           SKY/WX    TMP DP  RH WIND       PRES   REMARKS
OAKLAND*         N/A     45  45 100 S5        30.22F FOG
CUMBERLAND*    CLOUDY    41  32  70 CALM      30.34F

$$

VAZ025>031-170000-
SHENANDOAH VALLEY

CITY           SKY/WX    TMP DP  RH WIND       PRES   REMARKS
WINCHESTER*    CLOUDY    39  36  87 SE3       30.31F
FRONT ROYAL*   CLOUDY    41  37  87 CALM      30.30S
LURAY*         CLOUDY    46  43  87 SW5       30.29F
NEW MARKET*    CLOUDY    46  40  82 SW3       30.29F
STAUNTON*      MOCLDY    42  39  91 CALM      30.32R
WAYNESBORO*    CLOUDY    41  39  93 CALM      30.31R

$$

WVZ021-048>050-054>055-170000-
EASTERN WEST VIRGINIA PANHANDLE

CITY           SKY/WX    TMP DP  RH WIND       PRES   REMARKS
MARTINSBURG    CLOUDY    42  38  85 CALM      30.32S
PETERSBURG*    CLOUDY    44  37  76 CALM      30.30R

$$

VAZ036>039-050-170000-
CENTRAL FOOTHILLS

CITY           SKY/WX    TMP DP  RH WIND       PRES   REMARKS
CHARLOTTESVILL CLOUDY    44  42  93 S5        30.33F FOG
CULPEPER*      CLOUDY    44  40  87 SE3       30.37S
ORANGE*          N/A     43  43 100 CALM      30.36F
GORDONSVILLE*  CLOUDY    42  41  95 CALM      30.34F
WARRENTON*     CLOUDY    44  37  74 SE3       30.35S

$$

VAZ055>057-170000-
NORTH AND CENTRAL PIEDMONT

CITY           SKY/WX    TMP DP  RH WIND       PRES   REMARKS
FREDERICKSBRG* CLOUDY    44  37  77 S3        30.36S
STAFFORD*      CLOUDY    43  35  74 CALM      30.40F

$$

NCZ024-NYZ072-PAZ021-071-VAZ022-071-170000-
OTHER REGIONAL OBSERVATIONS

CITY           SKY/WX    TMP DP  RH WIND       PRES   REMARKS
NEW YORK CITY  CLOUDY    41  24  51 W5        30.36S
PHILADELPHIA   CLOUDY    39  24  55 SW6       30.39F
PITTSBURGH     CLOUDY    37  33  85 SE3       30.24S
ROANOKE        CLOUDY    45  42  89 CALM      30.35S
RICHMOND       CLOUDY    43  38  82 SE3       30.37F
RALEIGH        CLOUDY    50  34  54 S7        30.37R

$$

ANZ530>537-170000-
MARINE OBSERVATIONS

STATION/POSITION TIME  TEMP    WIND        PRES
                       AIR SEA DIR/SP/G
                 (UTC) (F)     (DEG/KT/KT) (MB)
THOMAS PT LIGHT  2300   39 38  160/  7/  8   N/A
BALT KEY BRIDGE  2248   38     100/  6/  7 1028.6F
COVE POINT       2248   39     180/  7/  8 1029.3F
LEWISETTA        2248   42 42  160/  4/  5 1028.6F
SOLOMONS ISLAND  2236   40 41  110/  7/  7   N/A
PINEY POINT      2242          140/  7/  7   N/A

$$





USA.gov is the U.S. government's official web portal to all federal, state and local government web resources and services.